Total_Precipitation_Accumulation
0.01 0.10 0.33 0.67 1.07 0.45 0.48 0.31 0.17 0.14 0.07 0.02 0.02 0.10 0.13 0.09 0.18 0.22 0.11 0.16 0.16 0.24 0.07 0.32 0.56 0.55 0.28 0.09 0.08 0.05 0.04 0.03 0.01 0.00 0.01 0.01 0.03 0.02 0.06 0.07 0.05 0.03 0.02 0.03 0.03 0.01 0.02 0.02 0.05
0.03 0.24 0.79 1.56 0.88 0.65 0.70 0.22 0.14 0.10 0.05 0.03 0.03 0.06 0.00 0.00 0.00 0.03 0.12 0.16 0.04 0.01 0.02 0.07 0.64 0.38 0.16 0.05 0.05 0.03 0.03 0.00 0.00 0.00 0.00 0.02 0.04 0.05 0.01 0.01 0.02 0.01 0.01 0.02 0.07 0.06 0.04 0.07 0.09
0.08 0.74 1.38 1.11 0.27 0.27 0.43 0.27 0.08 0.01 0.04 0.07 0.03 0.06 0.02 0.01 0.00 0.04 0.04 0.05 0.02 0.01 0.01 0.08 0.24 0.20 0.10 0.04 0.03 0.02 0.02 0.00 0.00 0.00 0.01 0.03 0.02 0.03 0.02 0.02 0.04 0.05 0.02 0.02 0.00 0.02 0.07 0.10 0.11
0.24 2.43 2.67 1.16 0.31 0.06 0.12 0.06 0.13 0.01 0.00 0.01 0.03 0.02 0.00 0.00 0.00 0.00 0.00 0.01 0.02 0.02 0.02 0.06 0.06 0.04 0.02 0.01 0.01 0.02 0.03 0.00 0.00 0.00 0.02 0.02 0.01 0.01 0.02 0.07 0.08 0.07 0.02 0.00 0.00 0.00 0.01 0.10 0.15
0.34 1.25 0.70 0.55 0.03 0.04 0.04 0.15 0.39 0.10 0.05 0.02 0.00 0.00 0.01 0.01 0.00 0.00 0.00 0.01 0.03 0.02 0.01 0.01 0.09 0.05 0.02 0.02 0.01 0.02 0.02 0.00 0.00 0.00 0.00 0.00 0.01 0.02 0.06 0.06 0.05 0.06 0.02 0.05 0.02 0.01 0.02 0.06 0.19
0.74 0.24 0.43 0.05 0.02 0.02 0.03 0.04 0.05 0.11 0.02 0.02 0.00 0.00 0.04 0.01 0.00 0.00 0.00 0.01 0.03 0.01 0.00 0.00 0.04 0.03 0.06 0.05 0.00 0.01 0.00 0.00 0.00 0.00 0.00 0.00 0.00 0.01 0.02 0.01 0.01 0.02 0.01 0.06 0.01 0.01 0.04 0.08 0.11
0.58 0.18 0.15 0.02 0.02 0.01 0.02 0.02 0.02 0.03 0.02 0.01 0.00 0.00 0.02 0.01 0.00 0.00 0.00 0.00 0.02 0.01 0.00 0.00 0.00 0.00 0.06 0.06 0.00 0.00 0.00 0.00 0.00 0.00 0.00 0.00 0.00 0.01 0.00 0.00 0.00 0.01 0.03 0.06 0.01 0.02 0.03 0.06 0.12
0.11 0.05 0.01 0.03 0.03 0.00 0.01 0.00 0.00 0.01 0.00 0.00 0.02 0.00 0.00 0.00 0.00 0.00 0.00 0.00 0.01 0.00 0.01 0.00 0.00 0.00 0.01 0.01 0.00 0.00 0.01 0.00 0.00 0.00 0.00 0.02 0.05 0.03 0.02 0.02 0.05 0.03 0.01 0.02 0.03 0.04 0.06 0.05 0.09
0.13 0.02 0.03 0.01 0.02 0.01 0.00 0.00 0.00 0.00 0.00 0.01 0.07 0.00 0.00 0.00 0.00 0.00 0.00 0.00 0.01 0.01 0.01 0.00 0.00 0.05 0.05 0.00 0.01 0.00 0.00 0.00 0.00 0.00 0.00 0.03 0.18 0.16 0.25 0.16 0.08 0.06 0.06 0.02 0.04 0.04 0.05 0.06 0.08
0.07 0.13 0.10 0.00 0.00 0.00 0.00 0.01 0.00 0.00 0.00 0.00 0.01 0.00 0.00 0.00 0.00 0.00 0.00 0.00 0.00 0.00 0.00 0.00 0.00 0.00 0.00 0.00 0.00 0.00 0.00 0.00 0.00 0.00 0.00 0.12 0.16 0.14 0.18 0.16 0.08 0.08 0.09 0.06 0.10 0.11 0.09 0.06 0.04
0.01 0.07 0.06 0.00 0.00 0.00 0.00 0.00 0.00 0.00 0.00 0.00 0.00 0.00 0.00 0.00 0.00 0.00 0.00 0.00 0.00 0.00 0.00 0.00 0.00 0.01 0.01 0.01 0.00 0.00 0.00 0.00 0.00 0.00 0.01 0.04 0.14 0.27 0.34 0.30 0.70 0.24 0.14 0.25 0.11 0.09 0.02 0.00 0.00
0.00 0.01 0.02 0.00 0.00 0.00 0.00 0.00 0.00 0.00 0.00 0.00 0.00 0.00 0.00 0.00 0.00 0.00 0.00 0.00 0.00 0.00 0.00 0.00 0.00 0.00 0.02 0.01 0.00 0.00 0.00 0.00 0.00 0.00 0.00 0.02 0.08 0.11 0.33 0.46 0.32 0.17 0.21 0.10 0.11 0.05 0.06 0.05 0.00
0.00 0.00 0.00 0.00 0.00 0.00 0.00 0.00 0.00 0.00 0.00 0.00 0.00 0.00 0.00 0.00 0.00 0.00 0.00 0.00 0.00 0.00 0.00 0.00 0.00 0.00 0.01 0.01 0.00 0.00 0.00 0.00 0.00 0.00 0.00 0.01 0.03 0.14 0.28 0.17 0.10 0.06 0.09 0.14 0.08 0.10 0.09 0.02 0.01
0.00 0.00 0.00 0.00 0.00 0.00 0.00 0.00 0.00 0.00 0.00 0.00 0.00 0.00 0.00 0.00 0.00 0.00 0.00 0.00 0.00 0.00 0.00 0.00 0.00 0.00 0.01 0.01 0.01 0.00 0.00 0.00 0.00 0.00 0.00 0.00 0.02 0.08 0.09 0.10 0.03 0.05 0.08 0.13 0.09 0.09 0.09 0.00 0.00
0.00 0.00 0.00 0.00 0.00 0.00 0.01 0.01 0.00 0.00 0.00 0.00 0.00 0.00 0.00 0.00 0.00 0.00 0.00 0.00 0.00 0.00 0.00 0.00 0.00 0.00 0.00 0.02 0.02 0.00 0.00 0.00 0.00 0.00 0.00 0.00 0.02 0.05 0.05 0.09 0.04 0.11 0.19 0.18 0.11 0.08 0.20 0.02 0.00
0.00 0.00 0.00 0.00 0.00 0.00 0.00 0.00 0.00 0.00 0.00 0.00 0.00 0.00 0.00 0.00 0.00 0.00 0.00 0.00 0.00 0.00 0.00 0.00 0.00 0.00 0.00 0.02 0.02 0.00 0.00 0.00 0.00 0.00 0.00 0.00 0.00 0.01 0.04 0.20 0.14 0.16 0.13 0.16 0.13 0.12 0.07 0.00 0.00
0.00 0.00 0.00 0.00 0.00 0.00 0.00 0.00 0.01 0.00 0.00 0.00 0.00 0.00 0.00 0.00 0.00 0.00 0.00 0.00 0.00 0.00 0.00 0.00 0.00 0.00 0.00 0.00 0.01 0.00 0.01 0.03 0.01 0.01 0.00 0.03 0.07 0.11 0.25 0.22 0.19 0.11 0.10 0.12 0.10 0.08 0.03 0.00 0.00
0.00 0.00 0.00 0.00 0.00 0.00 0.00 0.06 0.09 0.00 0.00 0.00 0.00 0.00 0.00 0.00 0.00 0.00 0.00 0.00 0.00 0.00 0.00 0.00 0.00 0.00 0.00 0.07 0.11 0.07 0.04 0.00 0.00 0.00 0.03 0.07 0.04 0.12 0.13 0.12 0.22 0.07 0.08 0.10 0.14 0.07 0.00 0.00 0.00
0.00 0.00 0.00 0.00 0.00 0.00 0.00 0.01 0.08 0.00 0.00 0.00 0.00 0.00 0.00 0.00 0.00 0.00 0.00 0.00 0.00 0.00 0.00 0.00 0.00 0.00 0.02 0.06 0.03 0.03 0.01 0.00 0.00 0.00 0.01 0.02 0.02 0.11 0.10 0.13 0.25 0.09 0.09 0.13 0.09 0.04 0.00 0.00 0.00
0.00 0.00 0.00 0.00 0.00 0.00 0.00 0.00 0.00 0.00 0.00 0.00 0.00 0.00 0.00 0.00 0.00 0.00 0.00 0.00 0.00 0.00 0.00 0.00 0.00 0.00 0.00 0.01 0.01 0.01 0.01 0.00 0.00 0.00 0.01 0.01 0.02 0.04 0.10 0.26 0.15 0.05 0.09 0.11 0.07 0.05 0.01 0.00 0.00
0.00 0.00 0.00 0.00 0.00 0.00 0.00 0.00 0.00 0.00 0.00 0.00 0.00 0.00 0.00 0.00 0.00 0.00 0.00 0.00 0.00 0.00 0.00 0.00 0.00 0.00 0.01 0.02 0.02 0.07 0.08 0.03 0.01 0.00 0.03 0.01 0.02 0.02 0.08 0.20 0.10 0.12 0.06 0.18 0.11 0.04 0.02 0.01 0.00
0.00 0.00 0.00 0.00 0.00 0.00 0.00 0.00 0.00 0.01 0.03 0.01 0.00 0.00 0.00 0.00 0.00 0.00 0.00 0.00 0.00 0.00 0.00 0.00 0.00 0.00 0.01 0.03 0.01 0.05 0.02 0.01 0.00 0.00 0.00 0.01 0.01 0.01 0.02 0.08 0.08 0.04 0.01 0.13 0.13 0.01 0.00 0.00 0.00
0.00 0.00 0.00 0.00 0.00 0.00 0.00 0.00 0.00 0.00 0.00 0.00 0.00 0.00 0.00 0.00 0.00 0.00 0.00 0.00 0.00 0.00 0.00 0.00 0.00 0.00 0.01 0.02 0.01 0.04 0.01 0.00 0.00 0.00 0.00 0.01 0.03 0.00 0.00 0.02 0.12 0.02 0.02 0.03 0.08 0.03 0.00 0.00 0.00
0.00 0.00 0.00 0.00 0.00 0.00 0.00 0.00 0.00 0.00 0.00 0.00 0.00 0.00 0.00 0.00 0.00 0.00 0.00 0.00 0.00 0.00 0.00 0.00 0.00 0.00 0.00 0.01 0.01 0.04 0.03 0.00 0.00 0.00 0.00 0.00 0.00 0.00 0.00 0.01 0.03 0.02 0.00 0.00 0.03 0.01 0.00 0.00 0.00
0.00 0.00 0.00 0.00 0.00 0.00 0.00 0.00 0.00 0.00 0.00 0.00 0.00 0.01 0.00 0.00 0.00 0.00 0.00 0.00 0.00 0.00 0.00 0.00 0.00 0.00 0.00 0.00 0.00 0.01 0.01 0.01 0.01 0.01 0.00 0.00 0.00 0.00 0.00 0.01 0.02 0.00 0.00 0.00 0.00 0.01 0.00 0.00 0.00
0.00 0.00 0.00 0.00 0.00 0.00 0.00 0.00 0.00 0.00 0.00 0.00 0.00 0.00 0.00 0.00 0.00 0.00 0.00 0.00 0.00 0.00 0.00 0.00 0.00 0.00 0.00 0.00 0.00 0.00 0.00 0.00 0.00 0.00 0.00 0.00 0.00 0.00 0.00 0.00 0.00 0.00 0.00 0.00 0.00 0.00 0.00 0.00 0.00
0.00 0.00 0.00 0.00 0.00 0.00 0.00 0.00 0.00 0.00 0.00 0.00 0.00 0.00 0.00 0.00 0.00 0.00 0.00 0.00 0.00 0.00 0.00 0.00 0.00 0.00 0.00 0.00 0.00 0.00 0.00 0.00 0.00 0.00 0.00 0.00 0.00 0.00 0.00 0.00 0.00 0.00 0.00 0.00 0.00 0.00 0.00 0.00 0.00
0.00 0.00 0.00 0.00 0.00 0.00 0.00 0.00 0.00 0.00 0.00 0.00 0.00 0.00 0.00 0.00 0.00 0.00 0.00 0.00 0.00 0.00 0.00 0.00 0.00 0.00 0.00 0.00 0.00 0.00 0.00 0.00 0.00 0.00 0.00 0.00 0.00 0.00 0.00 0.00 0.00 0.00 0.00 0.00 0.00 0.00 0.00 0.00 0.00
0.00 0.00 0.00 0.00 0.00 0.00 0.00 0.00 0.00 0.00 0.00 0.00 0.00 0.00 0.00 0.00 0.00 0.00 0.00 0.00 0.00 0.00 0.00 0.00 0.00 0.00 0.00 0.00 0.00 0.00 0.00 0.00 0.00 0.00 0.00 0.00 0.00 0.00 0.00 0.00 0.00 0.00 0.00 0.00 0.00 0.00 0.00 0.00 0.00
0.00 0.00 0.00 0.00 0.00 0.00 0.00 0.00 0.00 0.00 0.00 0.00 0.00 0.00 0.00 0.00 0.00 0.00 0.00 0.00 0.00 0.00 0.00 0.00 0.00 0.00 0.00 0.00 0.00 0.00 0.00 0.00 0.00 0.00 0.00 0.00 0.00 0.00 0.00 0.00 0.00 0.00 0.00 0.00 0.00 0.00 0.00 0.00 0.00